EW3836 Weather Reports


Display with metric or nautical units.
time (UTC)temp
F
wind
direction
speed
MPH
gust
MPH
rain 1hr
in
rain 24hr
in
rain mn
in
humidity
%
barometer
mb
20260502210024 72 323 0.0 0.0 0.00 0.00 0.00 50 1009.8
20260502204522 72 343 0.0 0.0 0.00 0.00 0.00 51 1009.8
20260502203024 73 42 0.0 0.0 0.00 0.00 0.00 45 1010.0
20260502201521 74 348 0.0 0.0 0.00 0.00 0.00 45 1010.1
20260502200014 73 315 0.0 0.0 0.00 0.00 0.00 39 1010.1
20260502194513 73 24 0.0 0.0 0.00 0.00 0.00 45 1010.2
20260502193009 72 43 0.0 0.0 0.00 0.00 0.00 45 1010.3
20260502191508 71 53 0.0 0.0 0.00 0.00 0.00 45 1010.3
20260502190005 72 30 0.0 0.0 0.00 0.00 0.00 38 1010.4
20260502184502 71 140 0.0 0.0 0.00 0.00 0.00 27 1010.3
20260502183105 71 197 0.0 0.0 0.00 0.00 0.00 25 1010.3
20260502181609 70 117 0.0 0.0 0.00 0.00 0.00 26 1010.4
20260502163049 66 104 0.0 0.0 0.00 0.00 0.00 34 1010.4
20260502161537 66 126 0.0 0.0 0.00 0.00 0.00 34 1010.4
20260502151523 62 155 0.0 0.0 0.00 0.00 0.00 37 1010.3
20260502123012 60 155 0.0 0.0 0.00 0.00 0.00 37 1010.1
20260502121511 60 124 0.0 0.0 0.00 0.00 0.00 36 1010.2
20260502114512 61 116 0.0 0.0 0.00 0.00 0.00 36 1010.2
20260502113004 61 111 0.0 0.0 0.00 0.00 0.00 36 1010.3
20260502111503 61 123 0.0 0.0 0.00 0.00 0.00 36 1010.4
20260502110002 61 98 0.0 0.0 0.00 0.00 0.00 36 1010.4
20260502104600 61 140 0.0 0.0 0.00 0.00 0.00 37 1010.5
20260502103103 61 95 0.0 0.0 0.00 0.00 0.00 36 1010.5
20260502101634 61 134 0.0 0.0 0.00 0.00 0.00 36 1010.6
20260502100117 61 132 0.0 0.0 0.00 0.00 0.00 35 1010.5
20260502070046 62 150 0.0 0.0 0.00 0.00 0.00 35 1011.0
20260502064533 62 124 0.0 0.0 0.00 0.00 0.00 35 1011.0
20260502063035 63 103 0.0 0.0 0.00 0.00 0.00 35 1010.8
20260502061531 62 152 0.0 0.0 0.00 0.00 0.00 36 1010.9
20260502060031 63 130 0.0 0.0 0.00 0.00 0.00 36 1010.8
20260502054528 63 117 0.0 0.0 0.00 0.00 0.00 36 1010.8
20260502053027 63 124 0.0 0.0 0.00 0.00 0.00 36 1010.9
20260502051530 62 130 0.0 0.0 0.00 0.00 0.00 37 1010.9
20260502050024 62 161 0.0 0.0 0.00 0.00 0.00 37 1010.7
20260502044523 62 159 0.0 0.0 0.00 0.00 0.00 39 1010.9
20260502043022 61 120 0.0 0.0 0.00 0.00 0.00 40 1010.9
20260502041521 62 134 0.0 0.0 0.00 0.00 0.00 39 1011.0
20260502040032 62 137 0.0 0.0 0.00 0.00 0.00 39 1011.2
20260502034520 62 140 0.0 0.0 0.00 0.00 0.00 41 1011.1
20260502033018 63 126 0.0 0.0 0.00 0.00 0.00 41 1010.9
20260502031517 64 120 0.0 0.0 0.00 0.00 0.00 43 1010.9
20260502030016 63 94 0.0 0.0 0.00 0.00 0.00 51 1010.9
20260502024532 63 93 0.0 0.0 0.00 0.00 0.00 50 1010.9
20260502023011 64 15 0.0 0.0 0.00 0.00 0.00 49 1010.9
20260502021509 64 47 0.0 0.0 0.00 0.00 0.00 48 1010.8
20260502020007 65 52 0.0 0.0 0.00 0.00 0.00 46 1010.8
20260502014517 65 38 0.0 0.0 0.00 0.00 0.00 44 1010.8
20260502013001 66 24 0.0 0.0 0.00 0.00 0.00 44 1011.0
20260502011603 68 20 0.0 0.0 0.00 0.00 0.00 42 1011.0
20260502010056 70 27 0.0 0.0 0.00 0.00 0.00 39 1011.0
20260502004610 71 66 0.0 0.0 0.00 0.00 0.00 38 1011.1
20260502003053 71 26 0.0 0.0 0.00 0.00 0.00 39 1011.0
20260502001552 71 32 0.0 0.0 0.00 0.00 0.00 38 1011.2
20260502000051 72 60 0.0 0.0 0.00 0.00 0.00 38 1011.4
20260501234549 72 44 0.0 0.0 0.00 0.00 0.00 38 1011.4
20260501233048 71 36 0.0 0.0 0.00 0.00 0.00 39 1011.5
20260501231546 71 55 0.0 0.0 0.00 0.00 0.00 41 1011.8
20260501230048 71 36 0.0 0.0 0.00 0.00 0.00 41 1011.9
20260501224545 71 11 0.0 0.0 0.00 0.00 0.00 42 1012.1
20260501223041 72 22 0.0 0.0 0.00 0.00 0.00 40 1012.4
20260501221533 72 46 0.0 0.0 0.00 0.00 0.00 42 1012.5
20260501220029 70 19 0.0 0.0 0.00 0.00 0.00 44 1012.8
20260501214529 71 44 0.0 0.0 0.00 0.00 0.00 41 1012.9
20260501213024 71 34 0.0 0.0 0.00 0.00 0.00 42 1013.0
20260501211523 71 40 0.0 0.0 0.00 0.00 0.00 42 1013.2